Temp_Advection
nan nan nan nan nan nan nan nan nan nan nan nan nan nan nan nan nan nan nan nan nan nan nan nan nan nan nan nan nan nan nan nan nan
nan 0 0 0 0 0 0 0 0 0 -0 -0 0 0 0 0 -0 0 0 -0 -0 -0 -0 -0 0 0 0 -0 0 -0 0 -0 nan
nan 0 -0 -0 0 0 0 0 0 0 0 0 0 0 0 0 0 0 0 -0 -0 -0 -0 -0 0 0 0 0 0 0 -0 -0 nan
nan 0 -0 -0 -0 -0 0 0 0 -0 -0 -0 0 0 0 0 0 0 -0 -0 0 -0 -0 -0 -0 -0 -0 -0 -0 -0 -0 -0 nan
nan 0 -0 -0 -0 -0 -0 0 0 0 0 0 0 0 -0 0 -0 -0 0 0 -0 -0 0 -0 0 -0 -0 -0 -0 -0 -0 -0 nan
nan 0 0 -0 -0 0 -0 0 0 -0 -0 0 0 0 -0 -0 0 0 0 -0 -0 -0 0 0 0 -0 -0 0 -0 -0 -0 -0 nan
nan -0 0 0 -0 -0 -0 -0 0 -0 -0 -0 0 0 0 -0 0 0 0 0 -0 -0 0 0 0 0 0 -0 -0 -0 -0 -0 nan
nan -1 -0 0 -0 -1 -0 -0 0 0 0 0 0 0 0 -0 -0 -0 0 -0 -0 -0 -0 0 -0 0 -0 -0 0 -0 -0 -0 nan
nan 0 0 0 0 0 0 0 0 0 0 0 0 0 0 -0 -0 0 0 -0 -0 0 0 -0 -0 0 -0 -0 -0 -0 -0 0 nan
nan 0 0 0 0 1 0 0 0 0 0 0 0 0 0 0 -0 -0 0 0 -0 -0 0 0 0 -0 -0 0 0 0 0 0 nan
nan 0 0 0 0 1 0 0 0 0 0 0 0 0 0 0 0 -0 -0 0 0 -0 -0 0 0 -0 -0 0 0 -0 -0 -0 nan
nan -0 0 0 0 0 0 0 0 0 0 0 0 0 0 0 0 -0 -0 -0 -0 -0 0 -0 -0 -0 0 0 0 -0 -0 -0 nan
nan 0 0 0 0 -0 -0 -0 -0 0 0 0 0 0 0 0 -0 -0 -0 -0 -0 -0 -0 -0 -0 -0 -0 0 -0 -0 -0 -0 nan
nan 0 0 0 0 -0 -0 -0 0 0 0 0 0 0 0 0 0 0 -0 -0 -0 -0 -0 0 0 0 0 -0 -0 -0 -0 -0 nan
nan 0 0 0 0 0 0 0 0 0 0 0 0 0 0 0 0 0 0 0 0 0 0 0 0 0 0 -0 -0 -0 -0 -0 nan
nan -0 -0 0 0 0 0 0 0 0 0 0 0 0 0 0 0 0 0 0 0 0 0 0 0 0 0 -0 -0 -0 -0 -0 nan
nan -0 -0 0 0 0 0 0 0 -0 0 0 -0 0 -0 -0 0 0 0 0 0 0 0 0 0 0 0 -0 -0 -0 0 0 nan
nan 0 0 0 0 0 0 0 -0 0 0 -0 0 -0 -0 -0 0 0 0 0 0 0 0 0 0 0 0 -0 -0 -0 -0 -0 nan
nan 0 0 0 0 0 0 0 0 0 0 0 -0 -0 0 -0 -0 -0 0 0 0 0 0 0 0 0 0 -0 -0 -0 -0 -0 nan
nan nan nan nan nan nan nan nan nan nan nan nan nan nan nan nan nan nan nan nan nan nan nan nan nan nan nan nan nan nan nan nan nan
Wind_Speed
20 19 20 20 19 19 18 16 16 16 16 18 17 17 18 19 21 22 20 20 18 16 12 10 13 17 19 21 19 18 17 16 17
20 20 20 19 21 22 19 17 18 16 18 18 15 17 17 18 21 21 19 18 16 15 14 13 11 11 12 15 15 14 13 13 10
20 20 20 21 22 20 20 19 19 18 18 17 13 18 18 20 20 17 16 13 12 10 11 10 10 9 10 8 8 8 7 7 12
20 19 20 21 21 20 22 19 18 17 19 16 11 14 16 18 17 14 12 9 10 3 5 5 12 12 13 13 12 14 13 15 15
20 20 21 21 21 22 22 21 19 17 17 15 12 14 16 15 14 13 12 4 3 4 5 13 15 16 16 17 17 17 16 16 17
20 21 21 21 22 24 23 23 20 18 17 14 12 10 14 16 15 12 7 0 1 12 16 15 16 16 17 17 17 17 16 16 16
22 20 20 22 23 22 22 21 20 14 14 15 10 8 10 15 15 13 7 3 11 13 16 16 16 16 16 17 15 15 15 14 14
21 22 22 23 24 23 22 20 15 11 11 11 9 7 9 11 13 13 12 12 12 14 15 15 15 15 15 15 15 14 14 14 13
21 19 21 23 23 22 21 19 15 12 10 9 6 6 9 11 14 15 12 11 10 13 14 15 14 14 14 13 13 13 13 13 12
21 20 21 22 22 23 21 19 16 14 12 9 6 6 10 10 12 17 14 13 11 11 11 13 13 13 11 10 9 8 8 9 9
20 21 22 22 22 23 20 17 16 14 11 9 7 8 11 12 12 15 17 16 14 12 10 11 11 11 11 8 7 7 7 8 9
19 20 22 23 23 23 21 18 16 14 12 10 9 10 12 13 13 14 12 11 16 15 12 11 10 9 9 9 6 6 7 9 10
19 20 21 23 23 23 21 19 17 15 13 11 11 11 12 13 14 14 13 11 11 12 11 7 5 4 5 3 5 7 8 11 12
20 20 20 22 23 24 24 23 20 18 16 13 12 11 12 12 13 13 13 12 10 8 7 5 3 2 1 3 5 8 10 13 14
20 21 22 23 23 24 25 23 22 18 16 16 14 14 13 13 13 13 12 12 12 10 8 7 5 4 4 4 6 9 12 14 15
21 21 23 23 24 24 24 24 22 22 21 20 18 16 15 14 14 13 13 12 11 11 10 8 8 7 6 6 7 10 12 14 15
22 23 24 24 25 26 26 27 28 26 25 24 21 14 17 19 18 17 15 14 13 12 11 10 9 9 8 9 10 11 13 15 16
23 23 24 25 26 28 29 30 30 29 30 27 18 10 12 22 23 22 19 18 15 14 13 12 11 10 11 12 13 14 16 17 18
25 24 25 26 27 29 30 30 31 31 30 31 31 17 9 12 11 25 23 21 18 16 15 15 14 14 14 14 15 17 18 19 19
26 26 26 27 28 28 30 32 32 32 33 33 32 33 20 14 11 11 25 26 24 21 19 18 17 16 16 17 17 19 20 21 21
Wind_Direction
147 150 151 151 158 153 148 151 138 129 124 118 112 109 108 107 103 98 97 101 100 97 102 110 98 103 102 98 93 91 92 85 85
151 148 145 145 144 144 153 144 137 135 129 124 120 119 116 111 107 103 105 105 104 97 97 92 129 125 126 115 105 97 101 82 81
148 145 148 144 145 150 146 146 140 134 134 129 134 123 120 114 110 109 106 111 104 108 100 90 93 118 109 110 114 109 103 85 64
149 146 146 147 147 150 146 141 131 138 136 136 136 125 129 127 121 118 111 119 108 118 103 95 90 85 82 82 86 81 77 77 73
152 150 151 152 153 150 145 140 146 148 144 151 154 126 139 130 116 115 114 124 73 105 127 99 88 85 83 81 82 82 78 80 73
155 155 158 160 155 154 158 150 156 154 163 157 141 135 147 156 149 137 118 98 109 102 100 102 94 93 90 86 84 82 79 79 76
161 157 161 164 162 163 165 161 168 161 149 144 140 136 145 166 169 152 151 152 109 109 106 102 100 95 92 88 84 82 79 72 69
169 166 167 169 172 176 173 173 173 157 152 148 146 137 141 149 154 128 126 119 112 108 107 104 103 97 95 90 87 82 76 70 64
174 174 171 174 179 179 179 179 174 172 163 161 155 150 148 144 135 132 135 130 129 117 112 109 104 101 96 93 87 83 76 67 59
177 176 175 179 181 183 182 180 179 176 172 170 167 165 160 157 150 142 142 139 130 123 117 111 107 101 95 89 82 68 54 43 33
183 180 179 182 185 184 186 184 182 181 182 180 173 170 169 170 163 154 152 150 142 137 129 122 115 101 92 80 68 54 37 22 9
187 186 184 185 189 190 190 187 189 191 189 192 177 173 175 176 175 173 168 164 152 144 144 138 124 112 96 88 49 30 9 358 351
189 192 190 187 190 196 200 200 197 199 198 187 177 175 181 182 182 184 184 186 181 172 168 170 148 128 118 21 7 354 349 344 343
192 192 193 194 195 199 204 204 208 198 192 188 183 182 185 187 187 186 188 191 192 194 190 195 194 199 257 327 333 336 338 338 337
202 203 203 205 205 205 207 207 199 204 200 190 191 186 187 190 194 198 200 201 202 203 208 214 222 231 255 291 319 331 335 335 336
209 209 211 211 212 212 206 201 204 197 200 197 190 192 195 199 205 207 209 213 214 216 218 225 232 247 256 276 297 318 329 332 333
216 215 216 216 215 211 212 211 203 207 205 204 195 195 210 212 212 213 216 214 218 226 231 235 239 247 259 271 290 307 320 327 330
225 224 223 223 220 219 217 216 219 214 206 210 201 188 213 214 219 218 220 220 222 225 234 240 242 248 259 276 295 310 319 320 322
231 231 228 226 226 225 224 223 225 223 221 214 217 221 213 191 208 220 222 225 229 230 233 238 242 251 264 279 294 306 313 316 321
235 233 231 229 229 230 229 227 226 227 231 229 225 224 227 222 212 209 217 222 225 229 233 239 245 250 263 276 288 299 307 312 316
Height
1542 1544 1545 1547 1548 1551 1553 1555 1558 1560 1562 1564 1565 1565 1567 1568 1568 1569 1571 1571 1572 1573 1573 1575 1575 1575 1574 1576 1577 1578 1577 1576 1576
1541 1543 1545 1547 1548 1552 1554 1556 1559 1561 1564 1565 1566 1567 1569 1570 1570 1571 1573 1573 1574 1574 1576 1576 1576 1577 1578 1578 1579 1578 1578 1578 1577
1541 1543 1546 1547 1550 1553 1555 1558 1561 1563 1565 1566 1567 1569 1570 1571 1573 1574 1575 1576 1576 1577 1578 1578 1578 1578 1579 1579 1579 1579 1579 1579 1579
1542 1544 1546 1548 1551 1554 1558 1561 1563 1564 1566 1567 1568 1570 1572 1573 1575 1576 1577 1577 1578 1578 1578 1579 1580 1580 1580 1579 1579 1580 1580 1581 1582
1542 1544 1546 1549 1552 1556 1559 1562 1565 1566 1567 1569 1570 1572 1574 1575 1576 1577 1578 1579 1578 1579 1579 1580 1581 1581 1581 1581 1581 1582 1583 1583 1583
1542 1545 1547 1550 1553 1557 1559 1563 1565 1566 1568 1570 1571 1573 1575 1576 1577 1579 1580 1580 1580 1580 1581 1582 1583 1583 1583 1584 1584 1584 1585 1584 1584
1543 1545 1548 1551 1554 1557 1560 1563 1566 1567 1569 1570 1572 1574 1575 1577 1579 1580 1582 1582 1581 1581 1582 1583 1584 1584 1585 1585 1585 1585 1585 1585 1584
1544 1546 1548 1551 1554 1557 1560 1563 1566 1569 1570 1571 1573 1574 1575 1577 1578 1580 1582 1583 1584 1584 1584 1585 1585 1586 1586 1586 1586 1586 1586 1585 1584
1545 1547 1549 1552 1554 1558 1561 1564 1566 1569 1571 1573 1573 1574 1576 1577 1578 1581 1583 1584 1585 1586 1587 1587 1587 1587 1587 1587 1587 1587 1586 1586 1585
1545 1547 1550 1552 1555 1558 1561 1564 1567 1569 1571 1573 1574 1575 1577 1578 1579 1582 1584 1586 1586 1587 1588 1588 1589 1588 1588 1587 1587 1586 1586 1586 1585
1545 1548 1550 1552 1555 1558 1562 1565 1567 1570 1572 1573 1574 1576 1577 1579 1581 1582 1584 1586 1587 1588 1589 1589 1589 1589 1589 1587 1587 1587 1586 1586 1585
1545 1548 1550 1553 1555 1558 1561 1564 1567 1569 1571 1573 1574 1576 1578 1579 1582 1583 1585 1586 1587 1588 1589 1589 1589 1589 1589 1588 1587 1587 1586 1585 1584
1543 1547 1551 1553 1555 1557 1560 1563 1566 1568 1571 1572 1573 1575 1577 1579 1581 1583 1584 1586 1587 1587 1587 1587 1587 1587 1587 1587 1586 1586 1585 1584 1583
1543 1546 1549 1553 1555 1557 1559 1561 1565 1567 1569 1571 1573 1575 1577 1578 1580 1582 1583 1585 1586 1586 1587 1587 1587 1587 1587 1586 1586 1585 1584 1583 1581
1541 1544 1547 1550 1553 1555 1557 1560 1563 1566 1568 1570 1572 1573 1576 1577 1579 1580 1581 1582 1583 1583 1585 1585 1586 1585 1585 1585 1584 1584 1583 1581 1579
1538 1542 1545 1547 1550 1553 1556 1558 1561 1563 1565 1567 1570 1572 1573 1575 1577 1579 1580 1582 1583 1583 1583 1583 1583 1583 1583 1582 1581 1581 1581 1579 1577
1536 1538 1541 1544 1547 1550 1553 1555 1555 1559 1562 1564 1567 1570 1573 1572 1573 1575 1577 1578 1579 1581 1582 1581 1581 1581 1580 1579 1579 1578 1578 1577 1576
1534 1535 1538 1541 1544 1546 1549 1552 1554 1555 1557 1560 1563 1564 1564 1567 1569 1571 1573 1574 1575 1576 1579 1580 1579 1578 1578 1577 1576 1575 1574 1572 1571
1531 1533 1535 1537 1540 1543 1546 1549 1550 1553 1555 1557 1558 1559 1559 1561 1564 1567 1569 1572 1574 1574 1574 1576 1575 1575 1575 1573 1572 1572 1571 1570 1569
1528 1529 1531 1533 1536 1539 1542 1545 1547 1550 1551 1552 1554 1556 1557 1558 1558 1559 1562 1564 1567 1570 1571 1572 1572 1571 1570 1571 1568 1568 1567 1566 1565